| time (UTC) | temp F | wind direction | speed MPH | gust MPH | rain 1hr in | rain 24hr in | rain mn in | humidity % | barometer mb |
| 20260507075517 | 51 | 139 | 2.0 | 5.0 | 0.00 | 0.00 | 0.00 | 39 | 1012.8 |
| 20260507074517 | 51 | 56 | 3.0 | 6.0 | 0.00 | 0.00 | 0.00 | 39 | 1012.8 |
| 20260507073537 | 51 | 73 | 2.0 | 4.0 | 0.00 | 0.00 | 0.00 | 41 | 1012.8 |
| 20260507072517 | 50 | 128 | 2.0 | 4.0 | 0.00 | 0.00 | 0.00 | 41 | 1013.1 |
| 20260507071517 | 51 | 48 | 3.0 | 7.0 | 0.00 | 0.00 | 0.00 | 40 | 1012.8 |
| 20260507070517 | 51 | 94 | 2.0 | 6.0 | 0.00 | 0.00 | 0.00 | 41 | 1012.5 |
| 20260507065517 | 51 | 98 | 2.0 | 5.0 | 0.00 | 0.00 | 0.00 | 40 | 1012.3 |
| 20260507064539 | 50 | 117 | 2.0 | 3.0 | 0.00 | 0.00 | 0.00 | 41 | 1012.4 |
| 20260507063519 | 49 | 110 | 2.0 | 5.0 | 0.00 | 0.00 | 0.00 | 42 | 1012.5 |
| 20260507062517 | 49 | 49 | 3.0 | 6.0 | 0.00 | 0.00 | 0.00 | 44 | 1012.7 |
| 20260507061518 | 48 | 90 | 1.0 | 5.0 | 0.00 | 0.00 | 0.00 | 44 | 1012.9 |
| 20260507060518 | 48 | 109 | 1.0 | 3.0 | 0.00 | 0.00 | 0.00 | 45 | 1012.8 |
| 20260507055518 | 48 | 53 | 3.0 | 7.0 | 0.00 | 0.00 | 0.00 | 45 | 1012.3 |
| 20260507054516 | 47 | 103 | 2.0 | 5.0 | 0.00 | 0.00 | 0.00 | 46 | 1012.2 |
| 20260507053515 | 46 | 54 | 2.0 | 6.0 | 0.00 | 0.00 | 0.00 | 49 | 1012.8 |
| 20260507052535 | 45 | 45 | 3.0 | 7.0 | 0.00 | 0.00 | 0.00 | 50 | 1012.7 |
| 20260507051516 | 45 | 77 | 1.0 | 4.0 | 0.00 | 0.00 | 0.00 | 52 | 1012.8 |
| 20260507050536 | 44 | 53 | 2.0 | 7.0 | 0.00 | 0.00 | 0.00 | 54 | 1012.7 |
| 20260507045516 | 43 | 132 | 1.0 | 2.0 | 0.00 | 0.00 | 0.00 | 56 | 1012.7 |
| 20260507044537 | 43 | 130 | 1.0 | 2.0 | 0.00 | 0.00 | 0.00 | 59 | 1012.7 |
| 20260507043557 | 42 | 137 | 0.0 | 2.0 | 0.00 | 0.00 | 0.00 | 62 | 1012.7 |
| 20260507042516 | 41 | 39 | 1.0 | 4.0 | 0.00 | 0.00 | 0.00 | 63 | 1012.7 |
| 20260507041537 | 40 | 139 | 0.0 | 1.0 | 0.00 | 0.00 | 0.00 | 69 | 1012.7 |
| 20260507040520 | 39 | 196 | 0.0 | 1.0 | 0.00 | 0.00 | 0.00 | 70 | 1012.8 |
| 20260507035537 | 38 | 158 | 1.0 | 2.0 | 0.00 | 0.00 | 0.00 | 69 | 1013.0 |
| 20260507034517 | 38 | 152 | 1.0 | 2.0 | 0.00 | 0.00 | 0.00 | 69 | 1013.3 |
| 20260507033517 | 37 | 178 | 0.0 | 1.0 | 0.00 | 0.00 | 0.00 | 71 | 1013.4 |
| 20260507032517 | 37 | 175 | 0.0 | 1.0 | 0.00 | 0.00 | 0.00 | 72 | 1013.3 |
| 20260507031518 | 36 | 157 | 0.0 | 1.0 | 0.00 | 0.00 | 0.00 | 75 | 1013.3 |
| 20260507030538 | 36 | 187 | 0.0 | 1.0 | 0.00 | 0.00 | 0.00 | 76 | 1013.4 |
| 20260507025518 | 36 | 195 | 0.0 | 1.0 | 0.00 | 0.00 | 0.00 | 77 | 1013.4 |
| 20260507024538 | 36 | 166 | 0.0 | 1.0 | 0.00 | 0.00 | 0.00 | 78 | 1013.4 |
| 20260507023539 | 37 | 195 | 1.0 | 1.0 | 0.00 | 0.00 | 0.00 | 77 | 1013.4 |
| 20260507022515 | 37 | 186 | 0.0 | 1.0 | 0.00 | 0.00 | 0.00 | 77 | 1013.4 |
| 20260507021516 | 37 | 210 | 0.0 | 1.0 | 0.00 | 0.00 | 0.00 | 77 | 1013.4 |
| 20260507020516 | 37 | 200 | 0.0 | 1.0 | 0.00 | 0.00 | 0.00 | 77 | 1013.4 |
| 20260507015516 | 37 | 171 | 0.0 | 1.0 | 0.00 | 0.00 | 0.00 | 77 | 1013.2 |
| 20260507014515 | 36 | 198 | 0.0 | 1.0 | 0.00 | 0.00 | 0.00 | 80 | 1013.3 |
| 20260507013516 | 36 | 176 | 0.0 | 1.0 | 0.00 | 0.00 | 0.00 | 84 | 1013.4 |
| 20260507012516 | 36 | 205 | 0.0 | 0.0 | 0.00 | 0.00 | 0.00 | 83 | 1013.5 |
| 20260507011517 | 37 | 159 | 2.0 | 4.0 | 0.00 | 0.00 | 0.00 | 84 | 1013.5 |
| 20260507010517 | 37 | 218 | 0.0 | 1.0 | 0.00 | 0.00 | 0.00 | 80 | 1013.4 |
| 20260507005537 | 37 | 296 | 0.0 | 1.0 | 0.00 | 0.00 | 0.00 | 79 | 1013.4 |
| 20260507004517 | 37 | 186 | 0.0 | 1.0 | 0.00 | 0.00 | 0.00 | 80 | 1013.5 |
| 20260507003517 | 37 | 273 | 0.0 | 1.0 | 0.00 | 0.00 | 0.00 | 79 | 1013.4 |
| 20260507002517 | 37 | 198 | 1.0 | 2.0 | 0.00 | 0.00 | 0.00 | 78 | 1013.4 |
| 20260507001517 | 37 | 199 | 0.0 | 1.0 | 0.00 | 0.00 | 0.00 | 79 | 1013.4 |
| 20260507000517 | 37 | 195 | 1.0 | 2.0 | 0.00 | 0.00 | 0.00 | 79 | 1013.3 |
| 20260506235518 | 37 | 240 | 1.0 | 1.0 | 0.00 | 0.00 | 0.00 | 77 | 1013.1 |
| 20260506234518 | 37 | 294 | 0.0 | 2.0 | 0.00 | 0.00 | 0.00 | 76 | 1013.2 |
| 20260506233518 | 37 | 256 | 1.0 | 2.0 | 0.00 | 0.00 | 0.00 | 76 | 1013.2 |
| 20260506232515 | 38 | 183 | 1.0 | 2.0 | 0.00 | 0.00 | 0.00 | 76 | 1013.2 |
| 20260506231538 | 38 | 290 | 0.0 | 1.0 | 0.00 | 0.00 | 0.00 | 76 | 1013.3 |
| 20260506230535 | 38 | 261 | 0.0 | 1.0 | 0.00 | 0.00 | 0.00 | 75 | 1013.3 |
| 20260506225518 | 38 | 255 | 0.0 | 2.0 | 0.00 | 0.00 | 0.00 | 74 | 1013.3 |
| 20260506224536 | 38 | 267 | 0.0 | 2.0 | 0.00 | 0.00 | 0.00 | 74 | 1013.3 |
| 20260506223515 | 38 | 245 | 0.0 | 2.0 | 0.00 | 0.00 | 0.00 | 73 | 1013.3 |
| 20260506222516 | 39 | 186 | 0.0 | 2.0 | 0.00 | 0.00 | 0.00 | 72 | 1013.3 |
| 20260506221516 | 39 | 248 | 0.0 | 1.0 | 0.00 | 0.00 | 0.00 | 73 | 1013.2 |
| 20260506220516 | 39 | 143 | 0.0 | 1.0 | 0.00 | 0.00 | 0.00 | 73 | 1013.2 |
| 20260506215516 | 39 | 175 | 0.0 | 1.0 | 0.00 | 0.00 | 0.00 | 73 | 1013.1 |
| 20260506214516 | 39 | 304 | 0.0 | 2.0 | 0.00 | 0.00 | 0.00 | 69 | 1013.1 |
| 20260506213517 | 39 | 296 | 1.0 | 2.0 | 0.00 | 0.00 | 0.00 | 68 | 1013.1 |
| 20260506212516 | 39 | 176 | 0.0 | 1.0 | 0.00 | 0.00 | 0.00 | 69 | 1013.2 |
| 20260506211517 | 40 | 207 | 0.0 | 2.0 | 0.00 | 0.00 | 0.00 | 69 | 1013.2 |
| 20260506210537 | 41 | 263 | 0.0 | 2.0 | 0.00 | 0.00 | 0.00 | 65 | 1013.0 |
| 20260506205516 | 41 | 287 | 0.0 | 1.0 | 0.00 | 0.00 | 0.00 | 65 | 1013.1 |
| 20260506204518 | 41 | 307 | 1.0 | 2.0 | 0.00 | 0.00 | 0.00 | 61 | 1013.0 |
| 20260506203537 | 41 | 333 | 1.0 | 2.0 | 0.00 | 0.00 | 0.00 | 60 | 1012.9 |
| 20260506202518 | 41 | 322 | 1.0 | 2.0 | 0.00 | 0.00 | 0.00 | 58 | 1012.9 |
| 20260506201518 | 42 | 337 | 1.0 | 2.0 | 0.00 | 0.00 | 0.00 | 58 | 1013.0 |
| 20260506200538 | 42 | 316 | 1.0 | 2.0 | 0.00 | 0.00 | 0.00 | 58 | 1012.9 |
| 20260506195518 | 42 | 25 | 1.0 | 3.0 | 0.00 | 0.00 | 0.00 | 57 | 1012.9 |
| 20260506194538 | 42 | 37 | 1.0 | 3.0 | 0.00 | 0.00 | 0.00 | 57 | 1013.0 |
| 20260506193515 | 42 | 73 | 1.0 | 2.0 | 0.00 | 0.00 | 0.00 | 57 | 1013.1 |
| 20260506192536 | 43 | 33 | 0.0 | 2.0 | 0.00 | 0.00 | 0.00 | 58 | 1013.2 |
| 20260506191536 | 43 | 353 | 1.0 | 3.0 | 0.00 | 0.00 | 0.00 | 57 | 1013.2 |
| 20260506190516 | 43 | 54 | 0.0 | 2.0 | 0.00 | 0.00 | 0.00 | 59 | 1013.3 |
| 20260506185516 | 43 | 93 | 0.0 | 1.0 | 0.00 | 0.00 | 0.00 | 58 | 1013.3 |
| 20260506184516 | 44 | 344 | 0.0 | 1.0 | 0.00 | 0.00 | 0.00 | 57 | 1013.2 |
| 20260506183516 | 44 | 336 | 0.0 | 1.0 | 0.00 | 0.00 | 0.00 | 56 | 1013.1 |
| 20260506182517 | 44 | 313 | 0.0 | 2.0 | 0.00 | 0.00 | 0.00 | 57 | 1013.0 |
| 20260506181517 | 45 | 41 | 1.0 | 3.0 | 0.00 | 0.00 | 0.00 | 54 | 1013.0 |
| 20260506180517 | 45 | 12 | 1.0 | 3.0 | 0.00 | 0.00 | 0.00 | 53 | 1012.9 |
| 20260506175518 | 45 | 11 | 1.0 | 3.0 | 0.00 | 0.00 | 0.00 | 53 | 1012.9 |
| 20260506174517 | 46 | 13 | 1.0 | 2.0 | 0.00 | 0.00 | 0.00 | 52 | 1012.8 |
| 20260506173517 | 46 | 40 | 1.0 | 4.0 | 0.00 | 0.00 | 0.00 | 50 | 1012.8 |
| 20260506172518 | 47 | 346 | 1.0 | 3.0 | 0.00 | 0.00 | 0.00 | 50 | 1012.8 |
| 20260506171518 | 47 | 12 | 1.0 | 3.0 | 0.00 | 0.00 | 0.00 | 49 | 1012.8 |
| 20260506170518 | 48 | 20 | 2.0 | 4.0 | 0.00 | 0.00 | 0.00 | 47 | 1012.8 |
| 20260506165518 | 48 | 23 | 1.0 | 4.0 | 0.00 | 0.00 | 0.00 | 46 | 1012.7 |
| 20260506164538 | 48 | 15 | 2.0 | 7.0 | 0.00 | 0.00 | 0.00 | 44 | 1012.6 |
| 20260506163516 | 49 | 36 | 2.0 | 5.0 | 0.00 | 0.00 | 0.00 | 37 | 1012.5 |
| 20260506162516 | 49 | 35 | 3.0 | 9.0 | 0.00 | 0.00 | 0.00 | 36 | 1012.5 |
| 20260506161516 | 49 | 21 | 3.0 | 5.0 | 0.00 | 0.00 | 0.00 | 37 | 1012.5 |
| 20260506160516 | 49 | 19 | 2.0 | 5.0 | 0.00 | 0.00 | 0.00 | 38 | 1012.5 |
| 20260506155516 | 50 | 0.0 | 0.0 | 0.00 | 0.00 | 0.00 | 38 | 1012.6 | |
| 20260506154536 | 50 | 34 | 3.0 | 7.0 | 0.00 | 0.00 | 0.00 | 38 | 1012.7 |
| 20260506153517 | 50 | 42 | 3.0 | 5.0 | 0.00 | 0.00 | 0.00 | 37 | 1012.7 |
| 20260506152517 | 50 | 30 | 2.0 | 5.0 | 0.00 | 0.00 | 0.00 | 37 | 1012.6 |
| 20260506151517 | 50 | 5 | 3.0 | 8.0 | 0.00 | 0.00 | 0.00 | 36 | 1012.8 |
| 20260506150537 | 50 | 28 | 3.0 | 7.0 | 0.00 | 0.00 | 0.00 | 36 | 1012.8 |
| 20260506145517 | 51 | 6 | 3.0 | 5.0 | 0.00 | 0.00 | 0.00 | 34 | 1013.0 |
| 20260506144517 | 51 | 352 | 3.0 | 5.0 | 0.00 | 0.00 | 0.00 | 34 | 1013.1 |
| 20260506143517 | 51 | 28 | 3.0 | 7.0 | 0.00 | 0.00 | 0.00 | 34 | 1012.9 |
| 20260506142518 | 51 | 15 | 3.0 | 8.0 | 0.00 | 0.00 | 0.00 | 35 | 1012.8 |
| 20260506141518 | 51 | 353 | 2.0 | 5.0 | 0.00 | 0.00 | 0.00 | 34 | 1013.0 |
| 20260506140518 | 52 | 18 | 4.0 | 7.0 | 0.00 | 0.00 | 0.00 | 35 | 1013.0 |
| 20260506135518 | 52 | 26 | 4.0 | 7.0 | 0.00 | 0.00 | 0.00 | 35 | 1012.9 |
| 20260506134518 | 52 | 347 | 2.0 | 6.0 | 0.00 | 0.00 | 0.00 | 33 | 1012.8 |
| 20260506133538 | 52 | 333 | 3.0 | 6.0 | 0.00 | 0.00 | 0.00 | 34 | 1012.8 |
| 20260506132515 | 52 | 33 | 2.0 | 10.0 | 0.00 | 0.00 | 0.00 | 34 | 1012.8 |
| 20260506131518 | 52 | 352 | 3.0 | 6.0 | 0.00 | 0.00 | 0.00 | 34 | 1012.9 |
| 20260506130516 | 52 | 344 | 3.0 | 6.0 | 0.00 | 0.00 | 0.00 | 34 | 1013.0 |
| 20260506125516 | 52 | 7 | 2.0 | 7.0 | 0.00 | 0.00 | 0.00 | 33 | 1013.1 |
| 20260506124536 | 52 | 20 | 2.0 | 7.0 | 0.00 | 0.00 | 0.00 | 34 | 1013.0 |
| 20260506123516 | 53 | 1 | 2.0 | 7.0 | 0.00 | 0.00 | 0.00 | 32 | 1012.9 |
| 20260506122516 | 53 | 34 | 2.0 | 8.0 | 0.00 | 0.00 | 0.00 | 31 | 1012.8 |
| 20260506121516 | 53 | 55 | 4.0 | 9.0 | 0.00 | 0.00 | 0.00 | 30 | 1012.7 |
| 20260506120517 | 53 | 84 | 2.0 | 7.0 | 0.00 | 0.00 | 0.00 | 32 | 1012.4 |
| 20260506115517 | 55 | 44 | 3.0 | 8.0 | 0.00 | 0.00 | 0.00 | 31 | 1011.9 |
| 20260506114537 | 54 | 43 | 3.0 | 7.0 | 0.00 | 0.00 | 0.00 | 33 | 1012.2 |
| 20260506113517 | 54 | 328 | 2.0 | 6.0 | 0.00 | 0.00 | 0.00 | 32 | 1012.3 |
| 20260506112537 | 53 | 349 | 2.0 | 5.0 | 0.00 | 0.00 | 0.00 | 32 | 1012.2 |
| 20260506111537 | 54 | 52 | 4.0 | 7.0 | 0.00 | 0.00 | 0.00 | 32 | 1012.5 |
| 20260506110538 | 54 | 17 | 2.0 | 6.0 | 0.00 | 0.00 | 0.00 | 33 | 1013.0 |
| 20260506105518 | 55 | 8 | 3.0 | 7.0 | 0.00 | 0.00 | 0.00 | 33 | 1012.2 |
| 20260506104518 | 54 | 292 | 2.0 | 6.0 | 0.00 | 0.00 | 0.00 | 32 | 1012.1 |
| 20260506103518 | 53 | 118 | 3.0 | 8.0 | 0.00 | 0.00 | 0.00 | 33 | 1012.0 |
| 20260506102518 | 52 | 12 | 2.0 | 8.0 | 0.00 | 0.00 | 0.00 | 32 | 1012.2 |
| 20260506101535 | 52 | 30 | 3.0 | 7.0 | 0.00 | 0.00 | 0.00 | 35 | 1013.9 |
| 20260506100516 | 54 | 36 | 4.0 | 7.0 | 0.00 | 0.00 | 0.00 | 33 | 1013.1 |
| 20260506095515 | 54 | 89 | 2.0 | 5.0 | 0.00 | 0.00 | 0.00 | 31 | 1012.2 |
| 20260506094516 | 54 | 244 | 2.0 | 4.0 | 0.00 | 0.00 | 0.00 | 34 | 1012.2 |
| 20260506093516 | 53 | 236 | 3.0 | 7.0 | 0.00 | 0.00 | 0.00 | 35 | 1012.1 |
| 20260506092516 | 53 | 245 | 2.0 | 6.0 | 0.00 | 0.00 | 0.00 | 33 | 1012.2 |
| 20260506091516 | 53 | 267 | 2.0 | 6.0 | 0.00 | 0.00 | 0.00 | 35 | 1012.1 |
| 20260506090516 | 53 | 345 | 3.0 | 7.0 | 0.00 | 0.00 | 0.00 | 35 | 1012.7 |
| 20260506085537 | 53 | 305 | 3.0 | 7.0 | 0.00 | 0.00 | 0.00 | 37 | 1011.7 |
| 20260506084517 | 52 | 14 | 4.0 | 9.0 | 0.00 | 0.00 | 0.00 | 37 | 1011.6 |
| 20260506083537 | 52 | 331 | 3.0 | 8.0 | 0.00 | 0.00 | 0.00 | 38 | 1011.9 |
| 20260506082518 | 52 | 22 | 4.0 | 9.0 | 0.00 | 0.00 | 0.00 | 40 | 1011.6 |
| 20260506081517 | 51 | 151 | 2.0 | 4.0 | 0.00 | 0.00 | 0.00 | 42 | 1012.2 |
| 20260506080518 | 51 | 264 | 3.0 | 7.0 | 0.00 | 0.00 | 0.00 | 41 | 1011.3 |